Simultaneous Nadir Overpasses (SNOs) Predictions

Prediction of SNOs between GOES-15 and LANDSAT-8 Satellite Orbit:

Table of predicted SNOs for the next 14.0 days since TLE Epoch: 9/2/2023
Index Date Time (GOES-15) GOES-15 Lat,Lon LANDSAT-8 Lat,Lon Distance(km) Time Diff (sec)
1 09/02/2023 01:45:41 -0.27, 127.48 -0.17, 126.96 58.36 80
2 09/04/2023 13:55:01 0.28, 124.95 0.18, 124.63 37.29 80
3 09/07/2023 02:01:34 -0.28, 122.24 -0.32, 122.31 9.41 80
4 09/09/2023 14:10:53 0.29, 119.69 0.32, 119.99 33.29 80
5 09/10/2023 02:34:51 -0.31, 119.06 0.61, 114.80 484.56 80
6 09/12/2023 02:20:05 -0.29, 116.95 -0.44, 117.67 82.46 80
7 09/12/2023 14:44:11 0.32, 116.49 -0.52, 112.46 457.85 80
8 09/14/2023 14:29:24 0.30, 114.37 0.49, 115.34 110.48 80
9 09/15/2023 02:53:21 -0.32, 113.73 0.43, 110.15 406.62 80
